TimeEST,TemperatureF,Dew PointF,Humidity,Sea Level PressureIn,VisibilityMPH,Wind Direction,Wind SpeedMPH,Gust SpeedMPH,PrecipitationIn,Events,Conditions,WindDirDegrees,DateUTC
12:55 AM,55.9,55.6,99,30.10,9.0,Calm,Calm,-,N/A,,Clear,0,2013-01-13 05:55:00
1:47 AM,55.4,55.4,100,30.10,2.5,Calm,Calm,-,N/A,,Clear,0,2013-01-13 06:47:00
1:55 AM,55.4,55.2,99,30.10,2.5,Calm,Calm,-,N/A,,Clear,0,2013-01-13 06:55:00
2:44 AM,55.4,55.4,100,30.11,0.8,Calm,Calm,-,N/A,,Clear,0,2013-01-13 07:44:00
2:45 AM,55.4,55.4,100,30.11,0.8,Calm,Calm,-,N/A,,Clear,0,2013-01-13 07:45:00
2:55 AM,54.3,54.0,99,30.11,1.0,Calm,Calm,-,N/A,,Clear,0,2013-01-13 07:55:00
3:55 AM,54.1,54.0,99,30.09,10.0,Calm,Calm,-,N/A,,Clear,0,2013-01-13 08:55:00
4:55 AM,53.6,53.2,99,30.09,10.0,Calm,Calm,-,N/A,,Clear,0,2013-01-13 09:55:00
5:12 AM,51.8,51.8,100,30.10,1.8,Calm,Calm,-,N/A,,Clear,0,2013-01-13 10:12:00
5:36 AM,51.8,51.8,100,30.10,0.8,Calm,Calm,-,N/A,,Clear,0,2013-01-13 10:36:00
5:42 AM,51.8,51.8,100,30.11,0.5,Calm,Calm,-,N/A,Fog,Fog,0,2013-01-13 10:42:00
5:55 AM,52.7,52.5,99,30.10,0.5,Calm,Calm,-,N/A,Fog,Fog,0,2013-01-13 10:55:00
5:56 AM,53.6,51.8,94,30.10,3.0,Calm,Calm,-,N/A,,Clear,0,2013-01-13 10:56:00
6:10 AM,51.8,51.8,100,30.11,0.8,Calm,Calm,-,N/A,,Clear,0,2013-01-13 11:10:00
6:16 AM,51.8,51.8,100,30.11,0.5,Calm,Calm,-,N/A,Fog,Fog,0,2013-01-13 11:16:00
6:27 AM,51.8,51.8,100,30.12,0.2,Calm,Calm,-,N/A,Fog,Fog,0,2013-01-13 11:27:00
6:35 AM,51.8,51.8,100,30.12,0.5,Calm,Calm,-,N/A,Fog,Fog,0,2013-01-13 11:35:00
6:55 AM,52.2,51.8,99,30.12,0.5,Calm,Calm,-,N/A,Fog,Fog,0,2013-01-13 11:55:00
6:56 AM,51.8,51.8,100,30.12,0.2,Calm,Calm,-,N/A,Fog,Fog,0,2013-01-13 11:56:00
7:04 AM,51.8,51.8,100,30.12,0.2,Calm,Calm,-,N/A,Fog,Fog,0,2013-01-13 12:04:00
7:08 AM,51.8,51.8,100,30.12,0.5,Calm,Calm,-,N/A,Fog,Fog,0,2013-01-13 12:08:00
7:12 AM,51.8,51.8,100,30.12,0.2,Calm,Calm,-,N/A,Fog,Fog,0,2013-01-13 12:12:00
7:55 AM,52.0,51.6,99,30.14,0.2,Calm,Calm,-,N/A,Fog,Fog,0,2013-01-13 12:55:00
7:56 AM,51.8,51.8,100,30.14,0.2,Calm,Calm,-,N/A,Fog,Fog,0,2013-01-13 12:56:00
8:01 AM,51.8,51.8,100,30.14,0.2,Calm,Calm,-,N/A,Fog,Fog,0,2013-01-13 13:01:00
8:07 AM,51.8,51.8,100,30.14,0.2,Calm,Calm,-,N/A,Fog,Fog,0,2013-01-13 13:07:00
8:11 AM,51.8,51.8,100,30.14,0.5,Calm,Calm,-,N/A,Fog,Fog,0,2013-01-13 13:11:00
8:14 AM,51.8,51.8,100,30.14,0.5,Calm,Calm,-,N/A,Fog,Fog,0,2013-01-13 13:14:00
8:20 AM,51.8,51.8,100,30.14,0.2,Calm,Calm,-,N/A,Fog,Fog,0,2013-01-13 13:20:00
8:22 AM,51.8,51.8,100,30.14,0.2,Calm,Calm,-,N/A,Fog,Fog,0,2013-01-13 13:22:00
8:28 AM,51.8,51.8,100,30.15,0.2,Calm,Calm,-,N/A,Fog,Fog,0,2013-01-13 13:28:00
8:44 AM,53.6,53.6,100,30.15,0.2,Calm,Calm,-,N/A,Fog,Fog,0,2013-01-13 13:44:00
8:45 AM,55.4,55.4,100,30.15,0.2,Calm,Calm,-,N/A,Fog,Fog,0,2013-01-13 13:45:00
8:55 AM,55.4,55.4,100,30.15,0.8,Calm,Calm,-,N/A,,Clear,0,2013-01-13 13:55:00
9:55 AM,62.8,62.8,100,30.15,10.0,SW,9.2,-,N/A,,Clear,220,2013-01-13 14:55:00
10:55 AM,67.3,66.9,99,30.14,10.0,WSW,6.9,-,N/A,,Clear,240,2013-01-13 15:55:00
11:15 AM,69.8,62.6,78,30.13,10.0,SW,6.9,-,N/A,Rain,Light Rain,220,2013-01-13 16:15:00
11:20 AM,71.6,60.8,69,30.13,10.0,SW,6.9,-,N/A,,Clear,220,2013-01-13 16:20:00
11:25 AM,71.6,60.8,69,30.12,10.0,SW,6.9,-,N/A,,Clear,230,2013-01-13 16:25:00
11:30 AM,71.6,60.8,69,30.12,10.0,SW,5.8,-,N/A,,Light Drizzle,230,2013-01-13 16:30:00
12:55 PM,74.3,60.1,61,30.09,10.0,SSW,9.2,-,N/A,,Clear,200,2013-01-13 17:55:00
1:55 PM,76.3,59.2,55,30.07,10.0,SSW,8.1,-,N/A,,Clear,210,2013-01-13 18:55:00
2:55 PM,76.3,58.6,54,30.07,10.0,SSW,8.1,-,N/A,,Clear,210,2013-01-13 19:55:00
3:55 PM,74.5,59.2,59,30.09,10.0,Variable,6.9,-,N/A,,Clear,0,2013-01-13 20:55:00
4:55 PM,73.4,59.4,61,30.09,10.0,South,4.6,-,N/A,,Partly Cloudy,190,2013-01-13 21:55:00
5:55 PM,70.2,59.7,69,30.09,10.0,South,4.6,-,N/A,,Clear,170,2013-01-13 22:55:00
6:55 PM,68.0,59.5,74,30.10,10.0,SW,3.5,-,N/A,,Clear,220,2013-01-13 23:55:00
7:55 PM,66.4,59.0,77,30.09,10.0,South,4.6,-,N/A,,Clear,180,2013-01-14 00:55:00
8:55 PM,66.6,58.6,76,30.09,10.0,South,5.8,-,N/A,,Clear,180,2013-01-14 01:55:00
9:55 PM,65.1,58.3,78,30.10,10.0,South,5.8,-,N/A,,Clear,190,2013-01-14 02:55:00
10:55 PM,64.6,59.0,82,30.12,10.0,SSW,4.6,-,N/A,,Clear,200,2013-01-14 03:55:00
11:55 PM,63.9,59.4,85,30.11,10.0,South,5.8,-,N/A,,Clear,190,2013-01-14 04:55:00